OPS 4682 DEB, 19511

Orbit data source: Space-Track

OPS 4682 DEB, 19511 is space debris in LEO originally from a launch on Sat, 03 Apr 1965 UTC launched from the Air Force Western Test Range (AFWTR). Debris objects in space refer to the collection of defunct objects orbiting the Earth. Examples of debris include non-operational satellites, rocket bodies, and fragments generated from explosions, collisions, or faulty payload assembly.

Loading next visibility...
Identifier
19511, 1965-027AU
Orbit
LEO
Country
Flag of USUS
Related business
Manufacturer
Unknown
Mission
Spacecraft
Bus & Motor
Unknown
Mass
Unknown
Launch date (UTC)
1965-04-03 (61 years ago)
Launch vehicle
Unknown
Launch site
Air Force Western Test Range (AFWTR)
Object type
Payload
Rocket body
Debris
Shape & HBR
Unknown shape, 0.1 m
Radar Cross Section
Medium (>0.1 m² and <1 m²)

Expand to show TLE details & history
Last TLE update: 8 hours ago

TLE from 8 hours ago
0 OPS 4682 DEB
1 19511U 65027AU  26208.60003234  .00000715  00000-0  24222-2 0  9990
2 19511  90.2368 359.3899 0028202 304.9208 188.6522 12.97883901807143
Epoch: 2026-07-27T14:24Z
TLE epoch observation values (Epoch: 2026-07-27T14:24:02.794Z)
Latitude
46.56279°
Longitude
18.34581°
Altitude
1,298.911 km
Speed
7.201 km/s
True Right ascension
11h 58m 33s
True Declination
46° 24' 11"
Sunlit
Object was in daylight at epoch
Visualization orbit readout
Latitude
Unknown
Longitude
Unknown
Altitude
Unknown
Speed
Unknown
Apparent Right ascension
Unknown
Apparent Declination
Unknown
Sunlit
N/A
Visualization observer readout
Local Sidereal Time
12:04:05
Azimuth
Unknown
Elevation
Unknown
Doppler factor
Unknown
Orbital elements
Apogee altitude
1,289.081 km
Perigee altitude
1,245.957 km
Semi-major axis
7,645.656 km
Eccentricity
0.00282
Inclination
90.2368°
RAAN
359.3899°
Arg. of periapsis
304.9208°
True anomaly
188.60375°
Mean anomaly
188.6522°
Eccentric anomaly
188.62796°
Mean motion
3.24654 °/min
Orbital period
110.89 mins
BSTAR
0.0024222
Loading maneuver chart data...
Computing Atmospheric mass density...
Loading historical data...
Loading historical data...
Loading historical data...
Loading historical data...
Loading historical data...
Loading historical data...
Loading historical data...

Documentation

Showing up to 5 results
|